Location: Unspecified
(0.0000°N, 0.0000°E)
Time: 19:27:01
(UTC+00:00)

Vanguard 2 - Pass Details

Date: 15 December 2017
Orbit: 553 x 2940 km, 32.9° (Epoch: 18 January)

Event Time Altitude Azimuth Distance (km) Brightness Sun altitude
Rises 08:40:53 0° 224° (SW) 6,654 12.2 37.4°
Reaches altitude 10° 08:45:41 10° 217° (SW) 5,741 12.0 38.5°
Maximum altitude 09:02:16 44° 151° (SSE) 3,495 12.5 42.0°
Drops below altitude 10° 09:15:37 10° 84° (E) 4,727 12.2 44.8°
Sets 09:19:04 0° 77° (ENE) 5,438 12.3 45.5°
